Theta_e
334 336 333 331 331 329 327 327 327 327 327 327 326 324 322 320 318 315 313 312 310 308 307 307 306 305 304 304 303 303 302 301 299 300 302 303 304 304 305 306 306 307 306
331 334 332 330 328 328 328 327 327 325 327 327 326 323 322 320 317 315 312 311 309 307 307 306 305 305 304 303 302 301 301 300 299 298 299 300 302 303 303 304 304 305 305
331 333 331 328 327 327 327 326 326 326 326 326 326 323 321 320 316 314 314 311 310 308 308 305 305 303 302 301 299 300 300 300 300 298 298 298 301 301 302 303 303 305 305
333 334 332 329 328 327 327 325 325 326 326 326 325 323 321 320 318 315 313 311 308 309 308 306 304 302 301 299 299 300 300 299 299 298 297 298 299 300 299 299 301 302 303
330 334 333 332 331 328 325 325 325 325 326 326 324 323 321 320 318 315 313 309 308 306 306 306 304 304 305 301 299 299 299 298 298 298 296 297 298 298 299 299 298 300 302
327 331 334 333 332 328 326 325 324 324 325 325 323 321 319 319 310 310 311 307 307 305 304 303 303 306 304 304 303 302 302 300 298 297 296 297 298 298 298 299 299 298 298
327 331 333 331 331 328 327 326 324 323 324 323 322 321 319 319 306 307 308 307 306 305 302 302 305 305 306 304 306 306 305 303 301 301 299 298 298 299 299 300 299 298 299
330 332 333 332 330 330 327 326 324 323 322 322 322 320 318 315 304 303 305 307 306 304 303 304 301 301 299 303 303 303 303 302 304 301 302 301 301 301 300 302 301 300 301
326 334 334 333 330 329 326 325 324 323 323 322 321 318 315 306 302 303 306 306 304 303 304 303 300 298 298 299 300 299 298 299 300 301 300 298 297 298 299 300 301 300 299
334 333 335 335 331 329 328 326 326 326 323 321 318 315 308 304 301 302 305 305 303 303 303 303 301 298 298 298 299 298 297 297 298 299 300 300 298 301 301 302 302 300 300
326 333 335 333 332 332 329 328 327 324 320 314 311 310 307 305 304 302 303 305 304 303 304 302 300 297 296 297 296 298 299 298 298 299 299 299 299 300 301 301 302 303 302
323 326 331 335 332 330 329 326 320 315 312 309 307 305 306 305 303 302 302 304 305 304 304 303 300 295 295 295 295 294 295 296 298 298 298 299 300 302 302 302 302 303 303
318 318 321 330 330 327 320 317 313 311 308 306 305 303 303 305 305 302 301 300 302 304 304 301 296 294 294 295 295 295 295 297 299 298 298 299 300 301 302 303 304 303 304
314 314 313 320 324 321 320 317 313 310 307 305 305 303 303 304 305 304 304 303 302 302 301 300 297 296 295 297 297 297 298 298 299 299 299 300 300 301 301 301 303 301 301
313 312 313 314 315 313 313 314 316 311 307 306 304 303 302 302 303 303 303 304 302 299 300 299 297 295 294 295 296 297 298 298 298 298 299 300 300 300 300 301 301 301 300
312 312 313 312 312 312 309 307 301 305 303 303 301 303 304 302 298 298 297 296 294 294 299 298 297 296 295 294 295 296 297 298 299 299 300 300 300 300 299 300 301 300 299
311 310 311 310 311 309 309 307 302 301 296 295 294 296 299 299 295 295 294 293 292 294 299 299 299 298 297 295 296 297 298 299 301 300 301 301 300 300 297 299 300 300 299
311 303 311 310 310 309 309 307 305 304 301 299 295 297 293 294 294 294 293 293 293 294 298 298 299 299 297 295 296 298 299 300 300 301 301 302 301 299 299 299 300 300 299
310 310 310 309 309 308 307 305 306 305 301 299 298 294 293 293 292 292 293 299 296 296 296 298 299 299 298 298 298 300 302 301 300 301 301 301 301 300 299 300 300 291 293
310 303 303 308 307 307 306 305 305 304 301 299 298 296 294 293 294 295 298 298 298 296 296 297 298 299 300 301 301 301 300 299 299 300 301 301 301 301 300 301 301 300 300
308 305 297 307 306 306 305 304 304 302 300 300 299 297 292 296 295 295 295 296 297 298 298 297 297 298 299 300 300 299 299 300 299 300 300 300 300 300 300 301 302 302 300
307 306 306 306 306 305 305 305 304 303 301 300 298 294 289 299 296 295 295 296 298 299 299 299 298 298 299 299 299 298 298 298 300 301 300 300 301 301 301 301 302 302 302
307 305 305 304 303 297 302 303 302 301 301 299 297 297 299 298 298 298 298 299 299 299 299 299 298 298 299 300 301 301 298 299 301 303 301 301 301 301 301 301 302 301 301
306 305 304 303 302 302 302 302 301 296 300 300 298 298 299 299 300 300 300 300 300 300 299 299 299 299 300 300 301 302 302 303 304 303 303 302 301 299 301 301 301 301 300
305 304 304 303 302 301 301 301 300 300 300 299 297 298 299 298 298 299 299 299 299 298 298 299 299 300 300 300 301 300 297 290 299 296 303 303 302 302 301 301 301 301 302
305 305 304 303 302 302 302 301 300 300 300 299 299 297 298 298 298 299 298 298 298 298 299 299 299 300 300 301 300 296 290 289 293 289 301 302 301 301 301 301 301 300 300
Wind_Speed
14 15 15 15 15 14 14 15 15 14 15 14 14 14 15 14 12 10 10 11 12 11 8 9 7 6 5 4 4 3 4 2 5 2 1 0 1 3 4 5 5 5 5
12 13 13 12 13 14 15 16 16 16 16 16 16 16 16 15 14 12 13 12 14 13 11 9 9 6 6 5 5 4 4 3 3 4 0 1 1 2 3 4 4 4 4
12 15 13 15 16 17 16 15 16 16 17 17 18 18 17 16 15 13 14 14 13 13 12 11 11 9 7 5 6 6 3 3 3 3 2 1 1 1 3 3 3 4 3
11 15 16 17 17 15 15 16 17 18 18 19 19 19 18 16 16 15 14 14 12 11 12 12 12 11 10 8 7 7 6 5 3 3 3 1 1 0 1 3 4 2 3
10 12 16 14 15 14 16 17 17 18 17 18 17 16 16 16 13 15 14 15 15 13 11 11 9 11 16 11 7 6 7 4 4 4 2 1 1 1 2 2 3 4 3
13 14 11 11 16 16 16 17 17 16 16 17 17 18 17 13 17 21 19 16 16 15 13 8 8 15 13 15 13 15 10 7 5 4 2 2 1 2 1 2 3 3 4
13 14 13 13 15 16 16 15 15 15 13 15 16 17 17 15 19 21 24 15 16 15 13 10 5 7 11 9 11 12 12 9 8 6 5 4 3 3 2 3 1 2 2
12 14 13 15 15 12 12 16 17 17 18 15 13 15 14 12 22 20 23 17 15 15 16 13 11 8 8 10 8 8 8 6 7 4 5 4 5 4 5 3 1 4 3
11 13 14 13 12 13 15 15 14 19 19 20 20 18 16 13 28 27 22 15 15 16 14 11 11 10 12 13 10 9 7 5 3 4 6 7 7 10 8 3 1 3 3
7 9 10 12 15 17 16 16 17 15 19 14 16 16 20 18 25 27 24 12 14 11 11 11 15 12 16 14 10 8 7 5 4 3 3 2 3 2 10 3 2 2 2
14 12 11 14 14 16 15 12 10 7 8 13 15 15 17 22 22 29 29 17 15 13 13 11 9 15 16 14 12 9 7 7 5 4 4 2 3 4 3 3 4 2 2
11 13 9 10 10 9 12 8 10 11 4 3 12 13 12 18 28 27 28 23 22 16 14 11 10 15 15 13 11 11 13 8 4 4 3 3 2 2 2 1 3 3 5
10 8 8 7 9 11 14 15 13 14 9 9 8 13 13 13 14 27 23 20 21 14 10 12 18 18 17 13 13 12 10 5 5 4 3 2 2 2 1 2 3 3 6
6 5 7 5 7 10 11 13 14 16 15 11 9 11 13 14 15 14 13 13 19 12 14 12 12 13 10 9 8 8 5 5 4 4 3 2 2 3 1 1 1 3 3
4 3 2 5 4 6 5 1 6 8 20 15 12 13 17 14 16 19 17 14 11 10 10 9 8 8 8 8 6 7 5 5 4 3 3 3 4 3 2 1 1 2 3
6 3 3 4 4 6 7 7 14 5 15 15 22 19 13 13 27 23 19 18 17 19 9 9 10 10 9 9 8 8 6 7 6 5 5 5 5 4 2 1 2 3 5
5 3 5 6 7 7 6 9 7 8 13 12 9 14 20 23 23 24 22 21 21 16 8 9 9 10 9 8 8 8 7 7 6 6 6 6 5 4 3 3 3 3 5
5 6 3 3 3 6 7 7 7 11 11 8 11 12 14 24 24 24 22 16 10 5 8 9 9 9 9 8 7 7 7 5 5 6 7 7 6 5 4 5 4 5 5
5 3 2 3 1 5 6 7 7 6 9 10 9 8 13 18 19 19 21 11 12 9 7 9 9 9 8 8 7 7 6 6 6 7 7 8 7 6 5 5 6 5 4
5 7 4 4 4 4 6 7 7 7 8 9 10 11 10 10 12 12 11 9 9 8 8 8 8 7 7 7 6 6 6 5 6 7 7 7 6 6 6 6 5 5 5
4 4 5 4 4 4 5 7 7 9 8 8 10 11 16 12 12 12 11 8 9 8 9 8 7 7 7 7 6 7 7 6 6 7 7 6 5 6 7 6 6 6 5
4 4 4 4 4 3 4 4 6 7 9 9 8 9 13 9 9 9 9 8 7 7 7 7 6 6 7 7 8 8 8 8 7 7 7 6 7 8 6 6 6 6 4
4 4 3 4 5 6 6 6 7 7 7 10 10 11 9 8 8 9 9 8 8 8 7 7 7 6 6 7 8 8 8 8 8 7 6 7 7 8 7 7 7 6 5
4 5 6 5 4 4 5 5 6 7 8 9 9 10 8 9 10 11 9 7 7 7 7 7 8 10 8 7 7 7 7 7 6 7 10 7 8 8 8 8 7 9 6
4 6 5 6 6 5 6 6 7 7 7 8 8 8 9 8 8 8 7 6 7 8 8 8 7 10 13 14 12 13 11 10 11 9 7 9 10 10 8 8 8 8 8
5 5 4 5 5 5 5 6 6 6 7 7 6 7 7 5 5 6 7 7 7 7 9 8 9 14 15 13 15 14 12 13 13 12 9 8 9 8 8 10 11 7 8
Wind_Direction
178 183 176 171 169 165 172 178 178 170 175 175 174 174 174 174 172 164 164 155 147 145 151 150 152 138 129 121 105 110 111 111 128 111 248 307 343 6 346 340 343 345 345
177 179 177 164 164 169 179 181 176 175 175 175 175 180 179 177 172 168 165 163 155 155 159 148 142 138 130 126 110 95 114 104 128 142 119 40 59 339 300 307 333 340 330
179 179 174 175 175 182 181 176 179 174 173 178 178 184 179 177 174 174 168 165 161 156 152 146 143 140 149 145 128 125 126 115 113 129 115 26 315 349 319 324 321 331 325
193 185 185 184 184 183 178 178 180 179 177 180 183 182 178 176 179 175 168 160 149 151 149 152 155 153 150 151 144 149 144 133 119 119 104 128 286 24 312 301 345 321 315
209 219 204 188 180 176 178 180 182 184 180 176 177 181 180 180 178 172 165 152 150 147 146 142 147 149 154 159 144 161 149 154 146 116 132 145 47 340 334 349 281 296 278
203 217 213 211 182 181 184 183 181 183 176 177 180 179 182 188 167 169 159 154 152 144 143 137 148 154 157 162 172 175 172 165 146 143 140 143 230 242 247 274 284 341 322
212 212 202 192 199 190 181 182 183 174 172 187 184 181 183 186 167 160 156 152 146 142 139 133 167 161 151 152 177 184 182 160 151 157 154 185 218 210 227 245 261 275 287
219 218 207 197 195 188 201 190 176 162 173 170 207 191 176 173 154 148 145 142 141 145 143 151 154 163 162 152 146 149 152 147 154 161 180 199 228 229 227 265 325 283 270
233 222 213 203 194 188 198 204 201 174 189 164 182 186 165 150 144 145 136 140 139 142 147 159 165 172 169 157 154 157 153 155 161 207 218 240 240 244 231 200 221 10 348
230 224 226 211 204 200 196 202 199 202 198 177 167 167 147 142 143 137 132 135 136 151 166 171 180 177 165 162 161 160 158 167 162 150 175 159 243 265 185 231 184 40 269
318 286 219 198 207 204 195 192 210 262 246 152 145 144 144 149 152 145 148 147 162 168 177 176 181 168 160 167 162 165 163 139 154 185 158 166 175 186 183 190 212 203 230
301 302 284 226 192 193 185 156 116 95 255 159 144 133 142 153 153 154 156 163 167 163 180 172 166 161 156 162 157 151 131 130 161 164 144 172 198 180 125 197 230 239 251
322 336 302 251 176 158 140 136 131 147 118 221 185 137 142 155 158 160 161 154 167 161 169 168 148 159 159 157 150 144 136 149 162 160 171 186 215 248 311 281 251 262 267
309 336 328 296 173 156 170 167 166 150 156 187 182 148 148 156 161 169 168 164 163 150 151 151 155 145 147 144 136 139 160 164 184 171 185 208 234 224 169 254 312 333 311
283 304 16 21 95 79 52 226 219 172 147 162 179 162 155 165 176 172 163 164 176 144 146 139 151 143 146 153 160 160 166 168 197 187 198 222 233 218 208 181 246 293 288
276 251 185 127 134 129 126 80 35 122 138 179 166 164 174 157 159 163 158 144 141 140 150 171 165 162 165 162 166 169 173 180 201 205 208 216 231 222 211 215 227 257 286
258 271 275 150 145 139 135 125 118 85 93 101 119 149 157 151 151 147 143 141 150 150 163 176 169 170 170 165 168 172 181 191 183 214 225 225 228 231 196 239 253 268 283
236 235 244 301 157 143 141 135 150 158 150 145 122 135 128 145 151 149 138 130 155 177 170 170 170 172 166 167 173 180 189 180 191 221 226 230 224 227 216 240 249 264 274
195 219 196 121 246 122 118 135 139 144 133 132 127 93 137 141 141 144 153 169 173 175 166 167 167 165 159 161 172 183 191 195 208 211 219 218 219 213 228 240 259 260 269
171 161 142 130 139 135 135 141 133 148 146 143 153 142 138 133 158 166 179 177 180 171 166 169 165 153 159 167 170 179 197 193 205 213 218 222 220 215 230 241 245 263 267
131 127 134 129 144 153 149 151 153 150 145 162 146 149 152 154 161 173 179 174 174 171 171 174 169 161 161 172 179 185 202 206 213 219 214 219 209 221 224 229 242 253 253
124 131 149 139 127 131 126 133 134 142 151 143 130 137 143 145 152 161 172 169 171 178 171 160 176 179 178 183 179 188 205 218 213 218 219 210 213 222 233 234 239 247 246
123 132 102 99 101 113 114 122 119 118 127 122 134 146 148 141 148 158 172 169 173 176 171 174 185 188 183 195 190 190 201 214 216 202 203 210 218 225 219 226 238 252 244
115 110 110 107 104 94 109 112 109 115 125 133 141 154 156 154 163 169 167 176 175 177 183 188 192 193 193 198 205 203 209 211 210 205 206 214 227 222 224 222 227 243 240
93 106 109 113 124 117 122 121 123 133 137 138 143 156 161 167 167 155 164 166 174 184 187 187 193 202 208 204 205 208 210 206 218 215 210 214 224 224 221 227 234 238 231
70 83 98 109 118 134 134 133 139 137 128 130 129 134 135 125 144 159 165 175 188 189 189 198 199 210 214 218 221 217 207 207 214 212 212 208 216 227 219 226 232 226 227